This demonstration page uses our WeatherBlox Daily Observations layout. Learn more.

Left ArrowRight Arrow

Hourly Observations for April 8, 2021

Temp ( °F °C ) Dew Point ( °F °C ) Humidity (%) Winds ( mph kmh ) Pressure ( in mb ) Visibility ( mi km ) Precip ( " mm )
12:59 am 00:59 Partly Cloudy 59 15 51 10.6 75 75 E 9 15 29.97 1015 10 16 0.00 0.00
1:59 am 01:59 Partly Cloudy 58 14.4 50 10 75 75 E 7 11 29.98 1015 10 16 0.00 0.00
2:59 am 02:59 Partly Cloudy 58 14.4 51 10.6 78 78 E 9 15 29.98 1015 10 16 0.00 0.00
3:59 am 03:59 Partly Cloudy 57 13.9 50 10 78 78 E 7 11 30.00 1016 10 16 0.00 0.00
4:59 am 04:59 Partly Cloudy 58 14.4 49 9.4 72 72 E 9 15 30.01 1016 10 16 0.00 0.00
5:59 am 05:59 Partly Cloudy 58 14.4 47 8.3 67 67 E 9 15 30.01 1016 10 16 0.00 0.00
6:59 am 06:59 Partly Cloudy 58 14.4 48 8.9 70 70 E 13 20 30.03 1017 10 16 0.00 0.00
7:59 am 07:59 Partly Cloudy 60 15.6 50 10 70 70 E 13 20 30.04 1017 10 16 0.00 0.00
8:59 am 08:59 Partly Cloudy 64 17.8 49 9.4 58 58 ESE 10 17 30.05 1018 10 16 0.00 0.00
9:59 am 09:59 Partly Cloudy 66 18.9 48 8.9 52 52 E 17 28 30.06 1018 10 16 0.00 0.00
10:59 am 10:59 Partly Cloudy 65 18.3 50 10 59 59 ENE 15 24 30.08 1019 10 16 0.00 0.00
11:59 am 11:59 Partly Cloudy 68 20 49 9.4 51 51 E 17 28 30.08 1019 10 16 0.00 0.00
12:59 pm 12:59 Partly Cloudy 67 19.4 51 10.6 57 57 E 12 19 30.08 1019 10 16 0.00 0.00
1:59 pm 13:59 Partly Cloudy 66 18.9 52 11.1 61 61 ENE 17 28 30.06 1018 10 16 0.00 0.00
2:59 pm 14:59 Partly Cloudy 65 18.3 52 11.1 63 63 E 15 24 30.05 1018 10 16 0.00 0.00
3:59 pm 15:59 Partly Cloudy 63 17.2 52 11.1 68 68 ENE 16 26 30.04 1017 10 16 0.00 0.00
4:59 pm 16:59 Mostly Cloudy 62 16.7 52 11.1 70 70 ENE 16 26 30.04 1017 10 16 0.00 0.00
5:59 pm 17:59 Mostly Cloudy 60 15.6 52 11.1 75 75 E 12 19 30.04 1017 10 16 0.00 0.00
6:59 pm 18:59 Mostly Cloudy 58 14.4 51 10.6 78 78 E 10 17 30.04 1017 10 16 0.00 0.00
7:59 pm 19:59 Mostly Cloudy 57 13.9 51 10.6 81 81 E 9 15 30.05 1018 10 16 0.00 0.00
8:59 pm 20:59 Mostly Cloudy 57 13.9 51 10.6 81 81 E 9 15 30.06 1018 10 16 0.00 0.00
9:59 pm 21:59 Mostly Cloudy 57 13.9 51 10.6 81 81 E 8 13 30.06 1018 10 16 0.00 0.00
10:59 pm 22:59 Mostly Cloudy 57 13.9 51 10.6 81 81 E 8 13 30.06 1018 10 16 0.00 0.00
11:59 pm 23:59 Mostly Cloudy 58 14.4 52 11.1 81 81 ESE 7 11 30.06 1018 10 16 0.00 0.00

Powered by AerisWeather